Tracking 30260 objects as of 14-Feb-2025
HD Live streaming from Space Station
objects crossing your sky now

CZ-4 DEB

Track CZ-4 DEB now!
10-day predictions


NORAD ID: 23258
Int'l Code: 1990-081CP
Perigee: 818.0 km
Apogee: 850.4 km
Inclination: 98.7 °
Period: 101.4 minutes
Semi major axis: 7205 km
RCS: 0.0136 m2 (small)
Launch date: September 3, 1990
Source: People's Republic of China (PRC)
Launch site: Taiyaun Space Center, China (TSC)

Note: This is SATELLITE DEBRIS
Your satellite tracking list
Your tracking list is empty




NASA's NSSDC Master Catalog

Two Line Element Set (TLE):
1 23258U 90081CP  25044.46403540  .00001171  00000-0  57488-3 0  9994
2 23258  98.6641  36.6123 0022443  19.9390 340.2659 14.19500795690277
Source of the keplerian elements: AFSPC